Location: Skanderborg
(56.0313°N, 9.9317°E)
Time: 22:48:40
(UTC+00:00)

Resurs 01 Rocket - Pass Details

Date: 15 August 2020
Orbit: 634 x 644 km, 98.0° (Epoch: 22 September)

Event Time Altitude Azimuth Distance (km) Brightness Sun altitude
Exits shadow 20:34:57 - 194° (SSW) 2,957 4.7 -11.8°
Rises 20:35:01 0° 194° (SSW) 2,934 4.7 -11.8°
Reaches altitude 10° 20:37:27 10° 206° (SSW) 2,031 4.0 -12.0°
Maximum altitude 20:41:18 28° 266° (W) 1,199 3.4 -12.4°
Drops below altitude 10° 20:45:10 10° 327° (NNW) 2,051 5.7 -12.7°
Sets 20:47:40 0° 339° (NNW) 2,967 6.6 -13.0°
